Terminal Aerodrome Forecast
Issued by NWS

Current Version | Previous Version | Graphics & Text | Print | Product List | Glossary On
Versions: 1 2 3 4 5 6 7 8 9 10 11 12 13 14 15 16 17 18 19 20 21 22
306
FTUS41 KPBZ 260801 AAA
TAFMGW
TAF AMD
KMGW 260801Z 2608/2706 00000KT 6SM BR SKC
     FM261000 00000KT 3SM BR SKC
      TEMPO 2610/2612 1SM BR
     FM261300 00000KT P6SM SKC=

USA.gov is the U.S. government's official web portal to all federal, state and local government web resources and services.